GW5374 Weather Reports


Display with metric or nautical units.
time (UTC)temp
F
wind
direction
speed
MPH
gust
MPH
rain 1hr
in
rain 24hr
in
rain mn
in
humidity
%
barometer
mb
20260506173507 69 38 2.0 7.0 0.00 0.00 0.00 79 1012.7
20260506173026 68 88 2.0 7.0 0.00 0.00 0.00 79 1012.8
20260506172507 68 55 2.0 5.0 0.00 0.00 0.00 78 1012.8
20260506172012 68 41 3.0 6.0 0.00 0.00 0.00 78 1012.9
20260506171504 68 90 2.0 9.0 0.00 0.00 0.00 80 1012.8
20260506171005 67 119 3.0 9.0 0.00 0.00 0.00 80 1012.8
20260506170504 67 105 2.0 6.0 0.00 0.00 0.00 80 1013.0
20260506170003 66 106 1.0 6.0 0.00 0.00 0.00 79 1013.1
20260506165503 66 115 2.0 10.0 0.00 0.00 0.00 80 1012.9
20260506165002 66 67 2.0 10.0 0.00 0.00 0.00 81 1013.2
20260506164503 65 40 3.0 12.0 0.00 0.00 0.00 83 1013.4
20260506164002 65 113 4.0 12.0 0.00 0.00 0.00 84 1013.5
20260506163502 64 118 3.0 8.0 0.00 0.00 0.00 86 1013.5
20260506163008 63 89 3.0 12.0 0.00 0.00 0.00 88 1013.5
20260506162503 62 39 3.0 12.0 0.00 0.00 0.00 88 1013.7
20260506162005 62 36 5.0 14.0 0.00 0.00 0.00 89 1014.0
20260506161503 62 42 7.0 14.0 0.00 0.00 0.00 89 1014.1
20260506161003 62 65 4.0 15.0 0.00 0.00 0.00 88 1014.6
20260506160505 62 36 6.0 16.0 0.00 0.00 0.00 88 1014.9
20260506160010 63 33 7.0 15.0 0.00 0.00 0.00 88 1014.5
20260506155506 63 33 6.0 13.0 0.00 0.00 0.00 1014.4
20260506155004 64 65 4.0 11.0 0.00 0.00 0.00 86 1014.7
20260506154503 64 32 3.0 15.0 0.00 0.00 0.00 86 1014.2
20260506154003 65 326 5.0 15.0 0.00 0.00 0.00 86 1014.2
20260506153503 65 304 3.0 10.0 0.00 0.00 0.00 87 1014.3
20260506153003 66 47 5.0 10.0 0.00 0.00 0.00 87 1014.1
20260506152502 66 69 4.0 11.0 0.00 0.00 0.00 86 1013.6
20260506152004 67 48 4.0 12.0 0.00 0.00 0.00 85 1013.3
20260506151504 68 53 3.0 13.0 0.00 0.00 0.00 83 1013.1
20260506151003 70 99 5.0 16.0 0.00 0.00 0.00 82 1013.2
20260506150503 72 38 6.0 16.0 0.00 0.00 0.00 80 1012.7
20260506150008 74 17 6.0 12.0 0.00 0.00 0.00 79 1012.7
20260506145505 77 25 1.0 3.0 0.00 0.00 0.00 86 1012.3
20260506145004 77 239 0.0 2.0 0.00 0.00 0.00 85 1011.9
20260506144507 77 174 0.0 2.0 0.00 0.00 0.00 86 1011.6
20260506144005 77 134 0.0 2.0 0.00 0.00 0.00 85 1011.5
20260506143503 77 259 0.0 4.0 0.00 0.00 0.00 84 1011.5
20260506143011 78 207 0.0 4.0 0.00 0.00 0.00 85 1011.3
20260506142504 78 173 1.0 3.0 0.00 0.00 0.00 84 1011.2
20260506142002 78 205 1.0 3.0 0.00 0.00 0.00 85 1011.1
20260506141503 78 210 0.0 2.0 0.00 0.00 0.00 86 1010.9
20260506141003 77 211 0.0 2.0 0.00 0.00 0.00 86 1011.0
20260506140504 76 200 0.0 3.0 0.00 0.00 0.00 87 1011.2
20260506140005 76 201 0.0 3.0 0.00 0.00 0.00 88 1011.5
20260506135503 76 167 0.0 2.0 0.00 0.00 0.00 88 1011.4
20260506135006 76 198 0.0 5.0 0.00 0.00 0.00 87 1011.1
20260506134520 76 188 1.0 5.0 0.00 0.00 0.00 87 1010.9
20260506134005 76 201 1.0 5.0 0.00 0.00 0.00 87 1011.0
20260506133504 76 227 1.0 5.0 0.00 0.00 0.00 87 1010.9
20260506133011 76 180 1.0 5.0 0.00 0.00 0.00 88 1010.9
20260506132505 75 187 1.0 5.0 0.00 0.00 0.00 89 1010.8
20260506132003 75 203 1.0 3.0 0.00 0.00 0.00 89 1010.8
20260506131510 75 178 0.0 2.0 0.00 0.00 0.00 90 1010.6
20260506131005 75 190 0.0 3.0 0.00 0.00 0.00 90 1010.6
20260506130504 75 162 0.0 3.0 0.00 0.00 0.00 90 1010.6
20260506130005 74 194 0.0 2.0 0.00 0.00 0.00 90 1010.6
20260506125502 74 194 0.0 2.0 0.00 0.00 0.00 91 1010.4
20260506125004 74 188 0.0 3.0 0.00 0.00 0.00 91 1010.4
20260506124513 74 192 0.0 3.0 0.00 0.00 0.00 91 1010.4
20260506124004 74 202 0.0 2.0 0.00 0.00 0.00 91 1010.3
20260506123504 73 205 0.0 2.0 0.00 0.00 0.00 91 1010.3
20260506123010 73 203 0.0 2.0 0.00 0.00 0.00 91 1010.3
20260506122506 73 170 0.0 2.0 0.00 0.00 0.00 91 1010.3
20260506122003 73 175 0.0 2.0 0.00 0.00 0.00 91 1010.3
20260506121514 73 175 0.0 0.0 0.00 0.00 0.00 91 1010.3
20260506121005 73 175 0.0 0.0 0.00 0.00 0.00 91 1010.3
20260506120507 74 175 0.0 0.0 0.00 0.00 0.00 90 1010.3
20260506120014 74 175 0.0 2.0 0.00 0.00 0.00 90 1010.2
20260506115505 74 175 0.0 2.0 0.00 0.00 0.00 91 1010.1
20260506115003 74 175 0.0 2.0 0.00 0.00 0.00 91 1010.1
20260506114515 74 251 0.0 0.0 0.00 0.00 0.00 90 1010.1
20260506114002 74 251 0.0 0.0 0.00 0.00 0.00 90 1010.2
20260506113502 74 251 0.0 0.0 0.00 0.00 0.00 90 1010.2
20260506113010 74 250 0.0 0.0 0.00 0.00 0.00 90 1010.3
20260506112505 74 250 0.0 0.0 0.00 0.00 0.00 90 1010.3
20260506112006 74 251 0.0 0.0 0.00 0.00 0.00 90 1010.2
20260506111513 74 251 0.0 0.0 0.00 0.00 0.00 90 1010.2
20260506111006 74 250 0.0 0.0 0.00 0.00 0.00 90 1010.2
20260506110507 74 251 0.0 0.0 0.00 0.00 0.00 89 1010.1
20260506110018 74 251 0.0 0.0 0.00 0.00 0.00 89 1010.1
20260506105506 74 251 0.0 1.0 0.00 0.00 0.00 89 1010.1
20260506105007 74 251 0.0 1.0 0.00 0.00 0.00 89 1009.9
20260506104519 74 250 0.0 0.0 0.00 0.00 0.00 89 1010.0
20260506104005 75 251 0.0 0.0 0.00 0.00 0.00 89 1009.9
20260506103503 75 250 0.0 2.0 0.00 0.00 0.00 89 1009.8
20260506103018 75 251 0.0 2.0 0.00 0.00 0.00 89 1009.8
20260506102507 75 250 0.0 2.0 0.00 0.00 0.00 89 1009.9
20260506102006 75 200 0.0 2.0 0.00 0.00 0.00 89 1009.8
20260506101514 75 200 0.0 2.0 0.00 0.00 0.00 89 1009.8
20260506101003 75 207 0.0 2.0 0.00 0.00 0.00 89 1009.7
20260506100506 75 185 0.0 2.0 0.00 0.00 0.00 89 1009.6
20260506100030 75 185 0.0 2.0 0.00 0.00 0.00 89 1009.7
20260506095507 75 185 0.0 2.0 0.00 0.00 0.00 89 1009.5
20260506095009 75 185 0.0 2.0 0.00 0.00 0.00 89 1009.4
20260506094519 75 134 0.0 2.0 0.00 0.00 0.00 89 1009.4
20260506094005 75 225 0.0 2.0 0.00 0.00 0.00 89 1009.3
20260506093505 75 198 0.0 2.0 0.00 0.00 0.00 89 1009.2
20260506093021 75 187 0.0 4.0 0.00 0.00 0.00 89 1009.2
20260506092502 75 187 0.0 4.0 0.00 0.00 0.00 89 1009.2
20260506092002 75 186 0.0 4.0 0.00 0.00 0.00 89 1009.2
20260506091511 75 201 0.0 2.0 0.00 0.00 0.00 89 1009.0
20260506091006 75 217 0.0 2.0 0.00 0.00 0.00 89 1009.0
20260506090505 75 217 0.0 2.0 0.00 0.00 0.00 89 1008.8
20260506090020 75 210 0.0 3.0 0.00 0.00 0.00 89 1008.8
20260506085506 75 205 0.0 2.0 0.00 0.00 0.00 89 1008.9
20260506085006 75 200 0.0 2.0 0.00 0.00 0.00 89 1008.9
20260506084525 75 226 0.0 2.0 0.00 0.00 0.00 89 1008.8
20260506084008 75 234 0.0 2.0 0.00 0.00 0.00 88 1008.8
20260506083507 75 269 0.0 2.0 0.00 0.00 0.00 88 1008.8
20260506083022 75 203 0.0 2.0 0.00 0.00 0.00 88 1008.8
20260506082508 75 158 0.0 2.0 0.00 0.00 0.00 88 1008.8
20260506082009 75 186 1.0 2.0 0.00 0.00 0.00 88 1008.7
20260506081506 75 212 0.0 2.0 0.00 0.00 0.00 88 1008.8
20260506081008 75 207 1.0 2.0 0.00 0.00 0.00 88 1008.8
20260506080503 75 205 1.0 2.0 0.00 0.00 0.00 88 1008.8
20260506073506 75 210 0.0 2.0 0.00 0.00 0.00 88 1009.1
20260506073007 75 234 0.0 2.0 0.00 0.00 0.00 88 1009.0
20260506072504 75 192 0.0 2.0 0.00 0.00 0.00 88 1009.1
20260506072003 75 201 0.0 2.0 0.00 0.00 0.00 88 1009.1
20260506071510 75 240 0.0 6.0 0.00 0.00 0.00 88 1009.2
20260506071005 75 197 1.0 6.0 0.00 0.00 0.00 88 1009.1
20260506070504 75 217 1.0 2.0 0.00 0.00 0.00 88 1009.1
20260506062503 75 209 1.0 4.0 0.00 0.00 0.00 88 1009.1
20260506062003 75 236 1.0 6.0 0.00 0.00 0.00 88 1009.1
20260506061505 75 221 0.0 6.0 0.00 0.00 0.00 88 1009.1
20260506061004 75 238 1.0 5.0 0.00 0.00 0.00 88 1008.9
20260506060506 75 284 1.0 4.0 0.00 0.00 0.00 88 1009.1
20260506051003 75 227 1.0 7.0 0.00 0.00 0.00 88 1009.3
20260506050504 75 177 0.0 3.0 0.00 0.00 0.00 88 1009.3
20260506045004 75 214 1.0 7.0 0.00 0.00 0.00 88 1009.1
20260506044518 75 202 2.0 6.0 0.00 0.00 0.00 87 1009.2
20260506044008 75 206 1.0 5.0 0.00 0.00 0.00 87 1009.3
20260506043508 75 161 1.0 5.0 0.00 0.00 0.00 87 1009.3
20260506043018 75 223 1.0 4.0 0.00 0.00 0.00 87 1009.1
20260506042508 76 203 0.0 3.0 0.00 0.00 0.00 86 1009.1
20260506042008 76 226 0.0 3.0 0.00 0.00 0.00 86 1009.1
20260506041523 76 212 0.0 3.0 0.00 0.00 0.00 86 1009.2
20260506041003 76 306 0.0 3.0 0.00 0.00 0.00 86 1009.1
20260506040503 76 212 1.0 4.0 0.00 0.00 0.00 86 1009.0
20260506040008 76 208 2.0 4.0 0.00 0.00 0.00 86 1009.0
20260506035503 76 217 1.0 7.0 0.00 0.00 0.00 86 1009.0
20260506035004 76 337 1.0 7.0 0.00 0.00 0.00 85 1008.8
20260506034512 76 116 1.0 7.0 0.00 0.00 0.00 85 1008.7
20260506034003 76 148 1.0 5.0 0.00 0.00 0.00 85 1008.7
20260506033508 77 199 1.0 4.0 0.00 0.00 0.00 85 1008.8
20260506033016 77 240 1.0 4.0 0.00 0.00 0.00 85 1008.8
20260506032509 77 243 1.0 8.0 0.00 0.00 0.00 84 1008.6
20260506032009 77 233 1.0 8.0 0.00 0.00 0.00 84 1008.6
20260506031527 77 167 1.0 8.0 0.00 0.00 0.00 84 1008.6
20260506031009 77 196 1.0 5.0 0.00 0.00 0.00 84 1008.4
20260506030507 77 180 1.0 5.0 0.00 0.00 0.00 84 1008.4
20260506030025 77 188 0.0 4.0 0.00 0.00 0.00 83 1008.3
20260506025507 77 209 0.0 7.0 0.00 0.00 0.00 83 1008.3
20260506025004 78 272 1.0 7.0 0.00 0.00 0.00 83 1008.3
20260506024527 78 209 1.0 3.0 0.00 0.00 0.00 82 1008.1
20260506024004 78 236 1.0 8.0 0.00 0.00 0.00 81 1008.0
20260506023504 78 200 0.0 8.0 0.00 0.00 0.00 81 1007.8
20260506023015 78 188 1.0 4.0 0.00 0.00 0.00 80 1007.6
20260506022503 78 236 0.0 2.0 0.00 0.00 0.00 80 1007.5
20260506022013 79 209 0.0 3.0 0.00 0.00 0.00 79 1007.5
20260506021522 79 203 1.0 3.0 0.00 0.00 0.00 79 1007.5
20260506021007 79 221 0.0 2.0 0.00 0.00 0.00 79 1007.4
20260506020508 79 144 0.0 5.0 0.00 0.00 0.00 79 1007.3
20260506020025 79 239 1.0 5.0 0.00 0.00 0.00 79 1007.1
20260506015511 79 224 0.0 4.0 0.00 0.00 0.00 79 1007.2
20260506015011 79 163 0.0 3.0 0.00 0.00 0.00 79 1007.2
20260506014527 79 197 0.0 4.0 0.00 0.00 0.00 78 1007.2
20260506014004 79 188 1.0 4.0 0.00 0.00 0.00 78 1007.1
20260506013504 79 206 0.0 6.0 0.00 0.00 0.00 78 1007.1
20260506013012 79 248 1.0 6.0 0.00 0.00 0.00 78 1007.1
20260506012505 80 161 1.0 4.0 0.00 0.00 0.00 77 1007.1
20260506012007 80 209 0.0 3.0 0.00 0.00 0.00 77 1007.0
20260506011541 80 169 1.0 4.0 0.00 0.00 0.00 77 1007.0
20260506011007 80 196 1.0 4.0 0.00 0.00 0.00 77 1007.1
20260506010511 80 214 0.0 3.0 0.00 0.00 0.00 76 1007.1
20260506010004 80 202 0.0 4.0 0.00 0.00 0.00 77 1007.1
20260506005501 80 196 0.0 4.0 0.00 0.00 0.00 76 1007.1
20260506005002 81 194 0.0 3.0 0.00 0.00 0.00 76 1007.1
20260506004507 81 174 1.0 2.0 0.00 0.00 0.00 76 1007.1
20260506004003 81 200 0.0 2.0 0.00 0.00 0.00 76 1007.1
20260506003503 81 166 0.0 2.0 0.00 0.00 0.00 75 1007.1
20260506003013 81 200 0.0 2.0 0.00 0.00 0.00 75 1007.1
20260506002504 81 203 0.0 3.0 0.00 0.00 0.00 76 1007.1
20260506002006 81 196 0.0 3.0 0.00 0.00 0.00 75 1007.1
20260506001512 81 128 0.0 3.0 0.00 0.00 0.00 75 1007.1
20260506001002 81 204 0.0 2.0 0.00 0.00 0.00 74 1007.0
20260506000506 82 194 0.0 2.0 0.00 0.00 0.00 74 1007.1
20260506000002 82 219 0.0 2.0 0.00 0.00 0.00 73 1007.0
20260505235502 82 177 0.0 2.0 0.00 0.00 0.00 73 1006.9
20260505235003 82 225 0.0 2.0 0.00 0.00 0.00 73 1006.9
20260505234504 82 246 1.0 3.0 0.00 0.00 0.00 73 1006.8
20260505234005 82 202 1.0 6.0 0.00 0.00 0.00 72 1006.8
20260505233501 82 215 0.0 8.0 0.00 0.00 0.00 73 1006.6
20260505233008 82 226 1.0 8.0 0.00 0.00 0.00 73 1006.7
20260505232505 82 229 1.0 3.0 0.00 0.00 0.00 72 1006.7
20260505232003 82 221 1.0 3.0 0.00 0.00 0.00 72 1006.7
20260505231514 82 236 0.0 2.0 0.00 0.00 0.00 72 1006.7
20260505231006 82 221 0.0 2.0 0.00 0.00 0.00 71 1006.6
20260505230507 82 209 0.0 3.0 0.00 0.00 0.00 71 1006.6
20260505230042 82 255 0.0 3.0 0.00 0.00 0.00 71 1006.6
20260505225505 82 233 0.0 3.0 0.00 0.00 0.00 71 1006.6
20260505225003 82 189 1.0 9.0 0.00 0.00 0.00 71 1006.5
20260505224504 83 254 0.0 9.0 0.00 0.00 0.00 70 1006.6
20260505224003 83 209 1.0 6.0 0.00 0.00 0.00 70 1006.5
20260505223503 83 212 1.0 6.0 0.00 0.00 0.00 69 1006.5
20260505223005 83 211 2.0 6.0 0.00 0.00 0.00 70 1006.4
20260505222505 83 166 0.0 2.0 0.00 0.00 0.00 70 1006.4
20260505222005 83 202 0.0 2.0 0.00 0.00 0.00 69 1006.5
20260505221514 83 221 0.0 7.0 0.00 0.00 0.00 70 1006.6
20260505221006 83 239 1.0 7.0 0.00 0.00 0.00 69 1006.6
20260505220506 83 185 1.0 5.0 0.00 0.00 0.00 69 1006.6
20260505220015 83 237 1.0 6.0 0.00 0.00 0.00 69 1006.7
20260505215505 83 248 1.0 6.0 0.00 0.00 0.00 69 1006.6
20260505215007 83 149 1.0 3.0 0.00 0.00 0.00 70 1006.8
20260505214504 82 232 1.0 3.0 0.00 0.00 0.00 69 1007.0
20260505214003 83 269 1.0 4.0 0.00 0.00 0.00 69 1007.0
20260505213506 83 90 0.0 4.0 0.00 0.00 0.00 69 1007.0
20260505213006 83 288 1.0 3.0 0.00 0.00 0.00 69 1007.0
20260505212502 83 280 0.0 4.0 0.00 0.00 0.00 70 1007.1
20260505212008 82 248 0.0 4.0 0.00 0.00 0.00 71 1007.3
20260505211518 82 234 0.0 3.0 0.00 0.00 0.00 71 1007.3
20260505211005 82 136 0.0 3.0 0.00 0.00 0.00 73 1007.2
20260505210505 82 207 1.0 4.0 0.00 0.00 0.00 72 1007.2
20260505210017 82 82 1.0 3.0 0.00 0.00 0.00 71 1007.4
20260505205509 82 265 1.0 4.0 0.00 0.00 0.00 70 1007.4
20260505205005 83 240 1.0 4.0 0.00 0.00 0.00 70 1007.5
20260505204519 83 211 0.0 2.0 0.00 0.00 0.00 72 1007.4
20260505204007 82 222 0.0 8.0 0.00 0.00 0.00 73 1007.4
20260505203506 82 246 2.0 8.0 0.00 0.00 0.00 73 1007.5
20260505203008 82 139 1.0 4.0 0.00 0.00 0.00 72 1007.8
20260505202503 82 182 1.0 7.0 0.00 0.00 0.00 73 1007.8
20260505202003 82 250 1.0 7.0 0.00 0.00 0.00 72 1007.9
20260505201506 82 263 2.0 9.0 0.00 0.00 0.00 73 1007.9
20260505201003 81 232 0.0 9.0 0.00 0.00 0.00 73 1008.1
20260505200503 81 162 2.0 7.0 0.00 0.00 0.00 74 1008.1
20260505200009 81 225 1.0 8.0 0.00 0.00 0.00 74 1008.2
20260505195505 81 188 1.0 8.0 0.00 0.00 0.00 74 1008.4
20260505195003 81 165 0.0 6.0 0.00 0.00 0.00 75 1008.4
20260505194517 81 254 0.0 6.0 0.00 0.00 0.00 74 1008.4
20260505194007 81 259 1.0 3.0 0.00 0.00 0.00 74 1008.6
20260505193509 80 257 1.0 5.0 0.00 0.00 0.00 74 1008.6
20260505193025 80 226 0.0 5.0 0.00 0.00 0.00 76 1008.7
20260505192507 80 229 2.0 5.0 0.00 0.00 0.00 75 1008.6
20260505192012 80 231 1.0 5.0 0.00 0.00 0.00 75 1008.7
20260505191503 80 304 1.0 2.0 0.00 0.00 0.00 73 1008.7
20260505191004 80 205 0.0 2.0 0.00 0.00 0.00 75 1008.6
20260505190503 81 227 0.0 5.0 0.00 0.00 0.00 75 1008.7
20260505190012 80 265 0.0 5.0 0.00 0.00 0.00 75 1008.8
20260505185507 80 208 1.0 5.0 0.00 0.00 0.00 76 1008.8
20260505185004 80 198 1.0 6.0 0.00 0.00 0.00 76 1008.9
20260505184519 79 258 1.0 6.0 0.00 0.00 0.00 77 1008.9
20260505184008 78 229 0.0 4.0 0.00 0.00 0.00 77 1009.0
20260505183508 78 202 2.0 4.0 0.00 0.00 0.00 78 1009.0
20260505183020 78 205 1.0 3.0 0.00 0.00 0.00 77 1009.1
20260505182507 78 285 0.0 3.0 0.00 0.00 0.00 77 1009.2
20260505182012 78 294 1.0 3.0 0.00 0.00 0.00 79 1009.3
20260505181523 77 244 1.0 3.0 0.00 0.00 0.00 80 1009.3
20260505181012 77 238 0.0 3.0 0.00 0.00 0.00 80 1009.3
20260505180507 76 261 1.0 3.0 0.00 0.00 0.00 79 1009.4
20260505180011 76 282 1.0 2.0 0.00 0.00 0.00 80 1009.5
20260505175503 76 271 1.0 3.0 0.00 0.00 0.00 80 1009.6
20260505175005 76 182 1.0 3.0 0.00 0.00 0.00 81 1009.7
20260505174516 76 257 1.0 2.0 0.00 0.00 0.00 81 1009.7
20260505174009 75 277 1.0 3.0 0.00 0.00 0.00 81 1009.7